Track STARLINK-4211 now! 10-day predictions STARLINK-4211 is classified as:
1 52873U 22062AV 22183.91667824 -.00764764 00000-0 -56950-2 0 9999 2 52873 53.2171 328.6672 0001139 55.6572 313.3043 15.74245980 1300